CAPE
1674 1690 1750 1839 1874 1842 1740 1688 1630 1435 1261 1290 1315 1328 1282 1262 1242 1239 1204 1174 1107 971 999 1025 988 901 859 834 804 710 662 634 536 265 0 0 0 0 0 0 0 0 0 0 0 0 0 0 0 0 0 0 0 0 0 0 0 0 0 0 0 0 0 0 0 0 0 0 0 0 0 0 0 0 0 0 0 0 0 0 0 0 0 0 0
1701 1767 1834 1912 1933 1827 1779 1691 1641 1509 1300 1275 1300 1297 1278 1232 1253 1238 1216 1177 1129 1012 979 992 974 905 845 835 738 707 656 576 419 259 0 0 0 0 0 0 0 0 0 0 0 0 0 0 0 0 0 0 0 0 0 0 0 0 0 0 0 0 0 0 0 0 0 0 0 0 0 0 0 0 0 0 0 0 0 0 0 0 0 0 0
1748 1781 1853 1952 1968 1840 1770 1727 1663 1566 1360 1298 1300 1300 1269 1270 1269 1246 1223 1205 1121 1003 953 880 938 880 826 750 735 704 617 490 357 222 0 0 12 1 0 0 0 0 0 0 0 0 0 0 0 0 0 0 0 0 0 0 0 0 0 0 0 0 0 0 0 0 0 0 0 0 0 0 0 0 0 0 0 0 0 0 0 0 0 0 0
1704 1742 1872 1966 1972 1898 1791 1730 1690 1597 1458 1282 1278 1267 1282 1286 1278 1253 1252 1228 1095 970 853 906 764 811 753 729 698 653 530 415 292 56 0 0 7 2 0 0 0 0 0 0 0 0 0 0 0 0 0 0 0 0 0 0 0 0 0 0 0 0 0 0 0 0 0 0 0 0 0 0 0 0 0 0 0 0 0 0 0 0 0 0 0
1713 1737 1820 1954 1972 1904 1808 1729 1683 1648 1536 1342 1224 1207 1227 1265 1264 1271 1280 1235 1065 956 1013 930 795 699 742 736 698 584 450 329 240 0 0 0 3 4 0 0 0 0 0 0 0 0 0 0 0 0 0 0 0 0 0 0 0 0 0 0 0 0 0 0 0 0 0 0 0 0 0 0 0 0 0 0 0 0 0 0 0 0 0 0 0
1702 1751 1804 1932 1935 1916 1841 1755 1695 1662 1582 1423 1280 1265 1297 1289 1252 1279 1299 1211 1043 1082 1090 988 878 744 746 725 647 557 368 233 79 0 0 0 1 1 2 0 0 0 0 0 25 0 0 0 0 0 0 0 0 0 0 0 0 1 3 5 10 7 0 0 0 0 0 0 0 0 0 0 0 0 0 0 0 0 0 0 0 0 0 0 0
1716 1744 1804 1896 1924 1895 1866 1790 1703 1640 1625 1497 1348 1336 1395 1423 1349 1327 1308 1191 1072 1162 1109 1045 909 736 738 699 620 476 251 259 111 0 0 0 0 0 2 3 0 0 0 0 0 0 0 0 0 0 0 0 0 0 2 14 15 22 40 24 30 6 0 0 0 0 0 0 0 0 0 0 0 0 0 0 0 0 0 0 0 0 0 0 0
1699 1689 1777 1857 1891 1930 1913 1781 1646 1620 1625 1545 1428 1423 1454 1476 1372 1339 1326 1182 1170 1179 1086 1045 950 831 764 667 576 351 128 282 0 0 0 0 0 1 8 10 4 2 0 0 0 0 0 0 0 0 0 0 0 2 11 15 44 57 65 38 3 0 0 0 0 0 0 0 0 0 0 0 0 0 0 0 0 0 0 0 0 0 0 0 0
1690 1722 1719 1783 1908 1930 1953 1819 1633 1566 1658 1599 1493 1490 1503 1506 1372 1368 1327 1203 1175 1132 1075 1130 1034 829 735 643 471 281 249 163 0 0 0 0 0 5 16 26 22 4 0 0 0 0 0 0 0 0 0 0 0 6 34 32 33 51 54 43 42 0 0 0 0 0 0 0 0 0 1 0 2 2 0 0 0 0 0 0 0 0 0 0 0
1638 1685 1642 1695 1777 1846 1898 1745 1528 1516 1587 1642 1571 1500 1524 1500 1370 1346 1321 1201 1181 1125 1057 1106 970 782 695 562 363 250 155 0 0 0 0 0 0 0 25 22 14 3 0 0 0 0 0 0 0 0 0 0 0 0 0 0 23 41 50 40 3 0 0 0 0 0 0 0 0 0 1 0 3 2 0 0 0 0 0 0 0 0 0 0 0
1630 1578 1598 1615 1704 1751 1852 1746 1454 1362 1556 1658 1639 1556 1538 1484 1294 1283 1274 1174 1159 1116 1038 1054 917 740 646 526 333 254 159 0 0 0 0 0 0 0 15 17 9 0 0 0 0 0 0 0 0 0 0 0 0 0 20 71 73 54 25 0 0 0 0 0 0 0 0 0 0 4 6 1 0 0 0 0 0 0 0 0 0 0 0 0 0
1587 1575 1531 1511 1514 1652 1768 1584 1370 1292 1478 1684 1666 1574 1624 1478 1309 1180 1165 1100 1133 1048 1063 1088 875 682 534 526 354 159 0 0 0 0 0 0 0 0 0 6 4 0 0 0 0 0 0 0 0 0 0 0 0 53 32 39 8 10 0 0 0 0 0 0 0 0 0 0 0 0 0 0 0 0 0 0 0 0 0 0 0 0 0 0 0
1558 1554 1516 1412 1420 1492 1535 1434 1256 1203 1379 1601 1601 1537 1658 1570 1337 1108 1017 1034 1062 965 1052 932 787 561 560 558 418 178 0 0 0 0 0 0 0 0 0 0 0 0 0 0 0 0 0 0 0 0 0 10 0 35 6 0 0 0 0 0 0 0 0 0 0 0 0 0 0 0 0 0 0 0 0 0 0 0 0 0 0 0 0 0 0
1532 1508 1432 1441 1420 1347 1360 1381 1213 1134 1215 1480 1526 1459 1597 1630 1435 1257 1053 942 912 982 891 701 573 518 628 571 449 225 0 0 0 0 0 0 0 0 0 0 0 0 0 0 0 0 0 6 11 0 8 28 23 14 3 0 0 0 0 0 0 0 0 0 0 0 0 0 0 0 0 0 0 0 0 0 0 0 0 0 0 0 0 0 0
1476 1434 1433 1405 1346 1293 1252 1363 1285 1140 1130 1323 1358 1332 1438 1521 1508 1404 1181 934 970 989 812 688 419 532 644 621 476 250 0 0 0 0 0 0 0 0 0 0 0 0 0 0 0 1 9 11 4 10 29 20 18 20 22 7 0 0 0 0 0 0 0 0 0 0 0 0 0 0 0 0 0 0 0 0 0 0 0 0 0 0 0 0 0
1427 1394 1374 1348 1314 1291 1254 1311 1267 1147 1154 1222 1188 1262 1282 1401 1385 1164 936 947 1048 948 623 612 419 561 649 577 424 268 0 0 0 0 0 0 0 0 0 0 0 0 0 0 3 4 3 0 1 9 3 2 3 4 0 0 0 0 0 0 0 0 0 0 0 0 0 0 0 0 0 0 0 0 0 0 0 0 0 0 0 0 0 0 0
1469 1376 1351 1338 1323 1296 1257 1221 1250 1128 1146 1056 1055 1299 1261 1070 1044 862 1010 1139 1036 814 704 596 432 495 426 462 316 26 1 0 0 0 0 0 0 0 0 6 2 91 6 13 15 11 13 13 9 0 0 0 2 3 2 0 0 0 1 0 1 1 3 0 0 0 0 0 0 0 0 0 0 0 0 0 0 0 0 0 0 0 0 0 0
1499 1420 1365 1346 1342 1308 1283 1226 1176 1164 1026 987 1072 1292 1265 934 863 1043 959 990 1034 927 623 583 515 387 250 222 202 0 0 0 0 0 0 0 0 0 0 133 7 10 13 15 12 8 10 15 2 0 0 0 0 0 0 0 1 1 0 0 0 0 0 0 0 0 0 0 0 0 0 0 0 0 0 0 0 0 0 0 0 0 0 0 0
1554 1476 1421 1377 1342 1293 1244 1219 1201 1164 1021 1038 1086 1259 1208 727 825 820 884 1086 1138 1035 758 571 489 324 277 243 142 38 20 0 0 0 0 0 0 0 132 154 138 33 0 0 2 4 3 0 0 12 6 0 0 0 0 0 0 0 1 0 0 0 2 1 0 0 0 0 0 0 0 0 0 0 0 0 0 0 0 0 0 0 0 0 0
1593 1578 1506 1409 1344 1287 1234 1200 1189 1157 1128 1062 1103 1250 1085 699 743 758 948 1103 1212 1111 761 642 464 368 302 290 208 0 30 0 0 0 0 0 0 0 6 6 0 0 0 0 0 0 0 4 13 5 0 0 0 0 0 0 0 0 0 0 4 6 2 3 2 0 0 0 2 0 0 0 0 0 0 0 0 0 0 0 0 0 0 0 0
1600 1581 1519 1438 1389 1307 1224 1183 1188 1198 1134 1058 1058 1261 1046 920 873 845 842 995 1087 874 606 627 517 355 336 332 258 166 97 6 0 0 0 0 0 0 0 0 0 0 97 0 1 4 20 11 4 0 0 0 0 0 0 0 0 0 1 3 3 12 10 4 1 0 0 5 8 5 1 0 0 0 0 0 0 0 0 0 0 0 0 0 0
1570 1546 1521 1485 1414 1315 1227 1199 1180 1198 1132 1073 1052 1179 905 914 1010 831 754 856 865 608 588 600 444 401 373 352 278 208 111 12 0 0 0 0 0 0 0 4 127 125 99 22 24 26 11 0 0 0 0 0 0 0 0 0 0 4 6 4 5 8 4 5 8 10 14 14 11 6 1 0 0 0 0 0 0 0 0 0 0 0 0 0 0
1529 1522 1512 1529 1415 1314 1240 1205 1213 1200 1038 936 1129 1143 984 1021 1042 715 641 790 752 702 712 574 494 430 386 334 304 264 158 16 2 1 0 0 0 0 0 0 0 32 28 46 61 22 0 0 0 10 5 1 0 0 0 0 0 3 6 6 10 6 4 9 12 10 12 11 7 0 0 0 0 0 0 0 0 0 0 0 0 0 0 0 0
1472 1492 1590 1573 1487 1333 1245 1210 1254 1184 1096 1100 1126 949 1043 1134 943 670 584 670 620 640 671 550 436 432 388 348 324 340 324 178 27 3 0 0 0 0 88 115 98 80 87 60 0 0 0 4 1 1 0 0 0 0 0 0 3 8 8 6 6 12 14 14 9 11 9 6 2 2 3 0 0 0 0 0 0 0 0 0 0 0 0 0 0
1488 1514 1449 1390 1411 1416 1294 1214 1084 1022 1143 932 1000 967 1017 883 784 576 484 532 691 799 752 661 578 482 394 396 405 332 256 278 194 92 76 0 47 97 0 0 95 125 55 0 0 5 0 0 0 0 0 0 0 0 2 6 7 7 5 3 5 17 13 10 6 4 3 4 6 5 3 1 0 0 0 0 0 0 0 0 0 0 0 0 0
1423 1277 1289 1001 920 1122 1303 796 712 773 812 844 857 930 782 741 746 577 449 629 800 837 758 660 531 484 477 390 350 271 159 189 208 157 107 108 116 116 130 118 2 0 0 0 0 0 0 0 0 0 0 0 0 1 4 5 2 3 6 3 0 6 12 13 15 8 5 2 4 6 2 0 0 0 0 0 0 0 0 0 0 0 1 0 0
1168 1118 1048 912 946 917 667 830 713 824 897 861 972 821 779 826 804 688 521 671 772 706 573 549 469 490 490 417 324 262 202 144 208 162 151 141 153 149 119 0 0 0 0 0 8 4 7 13 2 0 0 0 0 3 12 8 5 3 4 5 6 11 18 14 7 3 4 2 1 0 0 0 0 0 0 0 0 0 0 0 0 0 0 0 0
1184 1065 1008 961 832 946 967 687 631 683 715 594 515 594 761 760 569 531 616 743 790 725 587 542 459 447 432 386 306 141 85 95 77 33 69 150 152 116 113 46 0 22 21 6 2 0 0 0 0 0 0 0 0 1 1 0 1 2 2 1 2 5 6 5 2 2 0 1 0 0 0 0 0 0 0 0 0 0 0 0 0 0 0 0 0
1199 1077 995 916 892 922 994 927 699 785 800 623 525 585 821 855 687 670 832 886 847 767 639 544 412 470 468 394 327 254 94 90 120 103 102 141 172 172 169 175 121 43 9 1 0 0 2 0 0 0 0 0 0 0 0 0 1 2 1 0 0 0 0 0 0 0 0 0 0 0 2 0 0 0 0 0 0 0 0 0 0 0 0 0 0
888 855 787 826 862 771 824 890 830 818 873 986 969 777 798 940 910 705 772 772 752 693 647 574 451 384 356 296 231 200 85 136 164 186 182 213 237 239 246 234 5 20 51 41 16 8 0 0 0 0 0 0 0 0 0 0 0 0 0 0 0 0 0 0 0 0 0 0 0 0 0 2 2 0 0 0 0 0 0 0 0 0 0 3 2
887 734 720 730 774 769 808 823 795 916 1106 1072 837 745 817 964 862 663 550 479 671 659 602 403 339 328 349 305 234 175 168 180 193 248 239 199 196 198 191 0 0 92 57 18 3 0 0 0 0 0 0 0 0 0 0 0 0 0 0 0 0 0 0 0 0 0 0 0 0 0 1 8 9 1 0 0 0 0 0 0 0 0 3 0 0
833 825 785 747 663 754 879 940 1001 996 858 731 780 877 873 1046 1029 823 649 471 507 462 406 315 345 370 348 283 248 219 195 224 275 307 251 87 72 39 58 0 0 0 0 0 0 0 0 0 0 0 0 0 0 0 0 0 0 0 0 0 0 0 0 1 3 1 3 4 0 1 0 7 12 7 1 0 0 0 0 0 0 2 0 1 2
871 770 710 687 693 696 726 703 639 589 594 768 1056 1134 922 950 874 665 554 357 345 345 296 274 310 386 338 308 282 255 241 223 176 46 52 48 28 0 1 0 0 0 0 0 0 0 0 0 0 0 0 0 0 0 0 0 0 0 0 0 1 2 1 1 0 7 10 10 2 3 2 3 6 5 2 0 0 0 0 0 0 1 4 9 6
835 748 706 664 678 738 614 398 333 288 357 510 770 943 715 657 658 677 481 442 369 320 298 276 319 316 288 280 279 268 237 154 0 0 0 0 18 6 5 4 2 2 0 0 0 0 0 0 0 0 0 1 2 3 1 0 0 0 0 0 0 3 5 4 7 15 16 20 22 7 0 0 4 3 0 2 0 0 0 4 4 7 10 9 9
792 786 710 706 700 680 595 410 417 448 532 639 686 803 564 653 765 546 497 595 433 349 296 269 273 268 266 225 154 128 0 0 0 0 0 0 0 0 0 0 0 0 0 0 0 0 0 0 0 0 0 0 0 0 0 0 0 0 0 0 0 8 12 10 10 11 19 19 10 3 5 6 4 0 2 2 2 0 0 2 5 8 9 10 7
688 602 568 620 519 559 558 438 498 649 802 866 775 691 667 696 667 460 326 402 367 249 122 231 219 234 238 248 277 223 168 6 0 0 64 0 0 0 0 0 0 0 0 0 0 0 0 0 0 0 0 0 0 0 0 0 0 0 2 2 2 4 8 11 10 10 10 11 9 7 5 3 1 2 3 2 0 0 1 1 5 9 5 5 3
524 510 414 165 221 570 510 576 782 870 984 798 640 464 308 526 519 572 483 410 420 422 379 346 292 227 212 206 229 211 134 86 110 129 15 0 0 0 0 0 1 7 1 1 1 0 0 0 0 0 1 1 0 0 0 0 0 0 0 1 2 2 3 6 10 9 8 6 3 0 0 1 3 3 3 4 2 0 0 1 3 6 2 0 0
287 366 332 10 394 511 517 578 659 696 564 445 533 510 422 484 535 535 506 529 489 471 397 346 313 275 203 178 139 131 152 142 151 112 0 0 0 0 1 1 1 2 0 0 0 0 0 0 0 0 0 0 0 0 0 0 0 0 0 1 4 11 16 18 17 14 12 6 3 2 2 0 0 1 2 2 3 4 3 3 3 4 2 0 0
320 289 195 409 392 462 580 620 578 591 539 440 479 393 419 364 400 456 480 506 491 444 398 348 284 213 196 166 184 180 150 134 16 0 2 7 4 1 0 0 0 0 1 0 0 2 0 0 0 0 0 0 0 0 0 0 0 0 0 3 10 11 11 10 8 7 5 4 4 3 3 5 5 3 2 2 2 2 0 0 1 0 0 0 0
256 420 474 521 470 460 538 475 364 253 284 365 326 365 420 387 416 470 452 404 384 349 310 263 197 148 117 122 86 0 0 0 81 77 48 27 16 7 0 1 1 2 2 0 0 1 0 0 1 1 1 0 0 0 0 3 3 1 0 0 0 1 5 6 5 4 5 3 2 2 3 2 1 0 0 0 0 0 0 0 0 0 0 2 2
372 404 393 372 307 269 326 238 179 39 64 86 112 193 347 364 383 308 259 217 174 70 47 4 0 5 0 0 69 108 114 106 97 86 60 34 19 35 8 4 6 5 6 6 0 0 0 0 1 2 2 1 0 0 0 0 0 1 0 1 2 0 0 0 0 0 0 1 1 0 0 0 0 0 0 0 0 0 0 0 0 0 0 0 0
255 251 172 135 114 128 138 87 25 108 126 113 105 100 103 84 82 121 163 158 125 160 160 152 152 144 136 117 96 80 66 58 62 70 58 15 51 1 4 8 7 8 10 2 1 0 0 3 5 3 3 0 0 0 0 0 0 2 4 1 0 0 0 0 0 0 0 0 0 0 0 1 3 4 4 3 3 2 0 0 0 0 0 0 0
170 171 170 171 162 129 14 16 7 119 157 157 136 108 44 112 178 226 227 228 270 290 270 206 169 147 127 117 49 86 83 77 74 97 70 1 3 7 9 10 9 4 1 0 0 8 8 2 2 1 0 0 0 0 0 0 0 0 0 0 0 0 0 0 0 0 0 0 0 0 0 0 0 0 3 5 5 2 0 1 0 1 0 0 0
168 154 170 199 179 157 162 188 224 239 229 242 239 222 238 258 274 280 290 304 288 272 231 190 167 147 47 0 0 28 14 0 0 0 0 2 5 6 7 5 1 1 1 2 1 1 5 4 0 0 0 0 0 0 0 0 0 0 0 0 0 0 0 0 0 0 0 0 0 0 0 0 0 0 0 4 5 4 2 0 0 0 0 0 0
0 140 149 141 144 181 170 172 230 222 216 199 150 131 111 105 112 105 105 118 106 108 98 52 18 3 0 0 1 1 0 0 2 3 2 4 3 4 3 4 3 1 0 1 1 0 1 1 1 1 0 0 0 0 0 0 0 0 0 0 0 0 0 0 0 0 0 0 0 0 0 0 0 0 1 0 0 1 0 0 0 0 0 0 0
189 191 210 211 190 171 170 176 148 152 136 111 97 111 115 116 112 86 59 0 0 45 0 0 1 1 0 0 0 1 1 1 2 2 2 2 2 2 1 1 1 1 2 1 1 1 2 2 1 1 1 0 0 0 0 0 0 0 0 0 0 0 0 0 0 0 0 0 0 0 0 0 0 0 0 0 0 0 0 0 0 0 0 0 0
178 158 154 112 140 132 125 110 96 68 61 62 70 80 76 68 2 0 0 0 0 0 0 0 0 0 0 0 0 0 0 0 0 0 0 0 0 0 1 1 1 0 1 1 1 1 0 0 0 0 0 0 0 0 0 0 0 0 0 0 0 0 0 0 0 0 0 0 0 0 0 0 0 0 0 0 0 0 0 0 0 0 0 0 0
0 0 0 6 14 12 17 17 24 2 0 0 0 0 0 0 0 0 0 0 0 0 0 0 0 0 0 0 0 0 0 0 0 0 0 0 0 0 1 1 1 2 1 0 0 0 0 0 0 0 0 0 0 0 0 0 0 0 0 0 0 0 0 0 0 0 0 0 0 0 0 0 0 0 0 0 0 0 0 0 0 0 0 0 0
117 73 58 51 39 2 0 0 0 0 0 0 0 0 0 0 0 0 0 0 0 0 0 0 0 0 0 0 0 0 0 0 0 0 0 0 0 0 1 2 0 2 2 1 0 0 0 0 0 0 0 0 0 0 0 0 0 0 0 0 0 0 0 0 0 0 0 0 0 0 0 0 0 0 0 0 0 0 0 0 0 0 0 0 0
19 41 89 46 9 0 2 2 2 0 0 0 0 0 0 0 0 0 0 0 0 0 0 0 1 1 0 1 1 0 0 0 0 0 0 0 0 0 0 1 0 1 1 0 0 0 0 0 0 0 0 0 0 0 0 0 0 0 0 0 0 0 0 0 0 0 0 0 0 0 0 0 0 0 0 0 0 0 0 0 0 0 0 0 0
18 0 0 0 0 0 0 0 0 0 0 0 0 0 0 0 0 0 0 0 0 0 1 2 2 3 3 3 0 0 0 1 1 1 0 0 0 0 0 0 0 2 2 1 0 0 0 0 0 0 0 0 0 0 0 0 0 0 0 0 0 0 0 0 0 0 0 0 0 0 0 0 0 0 0 0 0 0 0 0 0 0 0 0 0
Wind_Speed
37 38 38 33 28 26 29 31 33 34 32 30 28 26 27 29 27 24 23 21 21 20 19 19 20 21 23 24 26 26 27 27 27 27 nan nan nan nan nan nan nan nan nan nan nan nan nan nan nan nan nan nan nan nan nan nan nan nan nan nan nan nan nan nan nan nan nan nan nan nan nan nan nan nan nan nan nan nan nan nan nan nan nan nan nan
37 37 37 31 25 26 30 32 35 35 33 32 29 27 29 30 28 26 23 21 20 20 20 19 20 22 24 26 27 27 27 28 28 27 nan nan nan nan nan nan nan nan nan nan nan nan nan nan nan nan nan nan nan nan nan nan nan nan nan nan nan nan nan nan nan nan nan nan nan nan nan nan nan nan nan nan nan nan nan nan nan nan nan nan nan
35 37 36 29 25 28 32 33 35 36 35 33 30 29 30 30 28 27 24 22 20 20 20 20 21 23 25 27 27 27 28 29 27 27 nan nan nan nan nan nan nan nan nan nan nan nan nan nan nan nan nan nan nan nan nan nan nan nan nan nan nan nan nan nan nan nan nan nan nan nan nan nan nan nan nan nan nan nan nan nan nan nan nan nan nan
38 38 33 27 28 31 32 34 36 36 35 33 30 28 30 30 29 27 25 23 21 20 20 21 22 24 26 27 27 28 28 28 28 nan nan nan nan nan nan nan nan nan nan nan nan nan nan nan nan nan nan nan nan nan nan nan nan nan nan nan nan nan nan nan nan nan nan nan nan nan nan nan nan nan nan nan nan nan nan nan nan nan nan nan nan
38 35 31 28 30 31 33 35 36 36 36 33 30 28 30 30 30 27 26 23 21 21 21 21 23 24 26 27 28 29 28 28 28 nan nan nan nan nan nan nan nan nan nan nan nan nan nan nan nan nan nan nan nan nan nan nan nan nan nan nan nan nan nan nan nan nan nan nan nan nan nan nan nan nan nan nan nan nan nan nan nan nan nan nan nan
35 33 31 30 30 32 34 36 36 37 36 32 29 28 29 32 31 27 25 23 22 21 22 22 23 25 26 28 29 29 29 28 nan nan nan nan nan nan nan nan nan nan nan nan nan nan nan nan nan nan nan nan nan nan nan nan nan nan nan nan nan nan nan nan nan nan nan nan nan nan nan nan nan nan nan nan nan nan nan nan nan nan nan nan nan
34 32 31 30 32 34 35 35 37 38 36 33 30 29 29 33 31 28 25 23 22 21 22 23 24 26 27 29 29 30 29 29 29 nan nan nan nan nan nan nan nan nan nan nan nan nan nan nan nan nan nan nan nan nan nan nan nan nan nan nan nan nan nan nan nan nan nan nan nan nan nan nan nan nan nan nan nan nan nan nan nan nan nan nan nan
33 32 30 31 33 35 35 36 38 39 37 33 30 30 30 34 31 28 25 23 21 22 23 24 25 27 28 29 29 30 30 30 nan nan nan nan nan nan nan nan nan nan nan nan nan nan nan nan nan nan nan nan nan nan nan nan nan nan nan nan nan nan nan nan nan nan nan nan nan nan nan nan nan nan nan nan nan nan nan nan nan nan nan nan nan
32 29 30 32 34 36 38 38 38 40 39 34 31 31 31 34 32 28 25 23 21 21 24 26 28 28 29 30 30 30 30 30 nan nan nan nan nan nan nan nan nan nan nan nan nan nan nan nan nan nan nan nan nan nan nan nan nan nan nan nan nan nan nan nan nan nan nan nan nan nan nan nan nan nan nan nan nan nan nan nan nan nan nan nan nan
38 35 33 33 36 39 41 41 39 43 40 33 31 32 34 35 32 28 25 23 22 23 25 26 28 30 31 30 30 29 29 nan nan nan nan nan nan nan nan nan nan nan nan nan nan nan nan nan nan nan nan nan nan nan nan nan nan nan nan nan nan nan nan nan nan nan nan nan nan nan nan nan nan nan nan nan nan nan nan nan nan nan nan nan nan
34 33 34 35 38 42 43 42 42 43 37 33 31 34 36 36 32 29 26 24 23 25 26 27 28 30 30 30 30 28 28 nan nan nan nan nan nan nan nan nan nan nan nan nan nan nan nan nan nan nan nan nan nan nan nan nan nan nan nan nan nan nan nan nan nan nan nan nan nan nan nan nan nan nan nan nan nan nan nan nan nan nan nan nan nan
35 34 32 37 40 44 44 42 41 39 37 33 33 34 38 35 33 30 27 26 25 25 25 27 29 30 30 30 29 29 nan nan nan nan nan nan nan nan nan nan nan nan nan nan nan nan nan nan nan nan nan nan nan nan nan nan nan nan nan nan nan nan nan nan nan nan nan nan nan nan nan nan nan nan nan nan nan nan nan nan nan nan nan nan nan
37 34 37 41 46 45 43 41 41 40 37 35 35 37 35 33 30 26 25 27 27 25 24 27 28 30 30 30 29 29 nan nan nan nan nan nan nan nan nan nan nan nan nan nan nan nan nan nan nan nan nan nan nan nan nan nan nan nan nan nan nan nan nan nan nan nan nan nan nan nan nan nan nan nan nan nan nan nan nan nan nan nan nan nan nan
38 38 39 46 45 43 42 41 40 39 37 34 36 39 37 33 31 28 29 30 27 25 25 27 29 29 29 29 30 30 nan nan nan nan nan nan nan nan nan nan nan nan nan nan nan nan nan nan nan nan nan nan nan nan nan nan nan nan nan nan nan nan nan nan nan nan nan nan nan nan nan nan nan nan nan nan nan nan nan nan nan nan nan nan nan
39 39 42 47 45 44 42 41 39 37 37 36 36 36 36 34 33 31 31 29 27 26 26 26 28 29 29 29 30 30 nan nan nan nan nan nan nan nan nan nan nan nan nan nan nan nan nan nan nan nan nan nan nan nan nan nan nan nan nan nan nan nan nan nan nan nan nan nan nan nan nan nan nan nan nan nan nan nan nan nan nan nan nan nan nan
39 42 44 46 44 42 42 41 40 39 38 35 37 38 37 36 35 34 31 29 27 28 27 27 29 29 29 30 30 31 nan nan nan nan nan nan nan nan nan nan nan nan nan nan nan nan nan nan nan nan nan nan nan nan nan nan nan nan nan nan nan nan nan nan nan nan nan nan nan nan nan nan nan nan nan nan nan nan nan nan nan nan nan nan nan
40 43 45 45 43 41 40 41 41 40 37 36 36 36 37 38 38 35 32 30 30 28 28 28 28 29 29 29 30 nan nan nan nan nan nan nan nan nan nan nan nan nan nan nan nan nan nan nan nan nan nan nan nan nan nan nan nan nan nan nan nan nan nan nan nan nan nan nan nan nan nan nan nan nan nan nan nan nan nan nan nan nan nan nan nan
41 42 42 42 42 43 44 43 39 38 37 36 35 36 37 39 38 36 34 33 30 30 30 28 27 28 29 30 31 nan nan nan nan nan nan nan nan nan nan 31 nan nan nan nan nan nan nan nan nan nan nan nan nan nan nan nan nan nan nan nan nan nan nan nan nan nan nan nan nan nan nan nan nan nan nan nan nan nan nan nan nan nan nan nan nan
39 39 40 41 45 45 42 41 40 40 38 39 36 35 37 40 41 38 35 33 32 32 31 29 27 26 27 29 32 nan nan nan nan nan nan nan nan nan 32 32 35 nan nan nan nan nan nan nan nan nan nan nan nan nan nan nan nan nan nan nan nan nan nan nan nan nan nan nan nan nan nan nan nan nan nan nan nan nan nan nan nan nan nan nan nan
39 41 45 46 46 45 43 41 41 43 44 41 41 37 39 44 42 39 37 35 34 33 31 29 26 26 27 29 31 nan nan nan nan nan nan nan nan nan nan nan nan nan nan nan nan nan nan nan nan nan nan nan nan nan nan nan nan nan nan nan nan nan nan nan nan nan nan nan nan nan nan nan nan nan nan nan nan nan nan nan nan nan nan nan nan
44 46 47 47 47 45 45 44 44 45 44 40 40 40 41 42 42 40 39 37 35 34 31 27 25 26 29 30 30 30 nan nan nan nan nan nan nan nan nan nan nan nan nan nan nan nan nan nan nan nan nan nan nan nan nan nan nan nan nan nan nan nan nan nan nan nan nan nan nan nan nan nan nan nan nan nan nan nan nan nan nan nan nan nan nan
44 47 49 50 50 49 48 48 47 48 47 42 38 40 41 42 42 40 37 36 35 34 30 25 25 29 31 31 31 31 33 nan nan nan nan nan nan nan nan nan 33 33 nan nan nan nan nan nan nan nan nan nan nan nan nan nan nan nan nan nan nan nan nan nan nan nan nan nan nan nan nan nan nan nan nan nan nan nan nan nan nan nan nan nan nan
47 49 50 51 50 49 49 50 49 48 44 41 40 39 40 42 41 39 36 36 36 33 28 26 27 30 32 34 34 35 36 nan nan nan nan nan nan nan nan nan nan nan nan nan nan nan nan nan nan nan nan nan nan nan nan nan nan nan nan nan nan nan nan nan nan nan nan nan nan nan nan nan nan nan nan nan nan nan nan nan nan nan nan nan nan
49 50 50 50 50 50 50 49 49 48 44 42 41 43 41 43 40 38 38 38 36 31 28 26 28 31 34 37 37 36 35 35 nan nan nan nan nan nan nan 32 nan nan nan nan nan nan nan nan nan nan nan nan nan nan nan nan nan nan nan nan nan nan nan nan nan nan nan nan nan nan nan nan nan nan nan nan nan nan nan nan nan nan nan nan nan
57 56 54 50 48 49 49 48 48 45 44 43 44 44 42 42 40 39 38 38 35 29 26 25 26 30 37 39 37 35 34 33 33 nan nan nan nan nan nan nan nan 34 nan nan nan nan nan nan nan nan nan nan nan nan nan nan nan nan nan nan nan nan nan nan nan nan nan nan nan nan nan nan nan nan nan nan nan nan nan nan nan nan nan nan nan
45 41 39 42 44 49 52 50 43 39 42 43 44 43 42 41 40 39 39 36 32 28 25 26 28 32 35 34 35 35 35 34 33 33 32 31 30 31 32 32 nan nan nan nan nan nan nan nan nan nan nan nan nan nan nan nan nan nan nan nan nan nan nan nan nan nan nan nan nan nan nan nan nan nan nan nan nan nan nan nan nan nan nan nan nan
37 37 39 44 48 46 42 39 37 36 34 39 39 41 41 39 39 41 39 37 32 29 30 31 32 34 34 34 35 36 35 34 35 34 31 30 28 31 31 nan nan nan nan nan nan nan nan nan nan nan nan nan nan nan nan nan nan nan nan nan nan nan nan nan nan nan nan nan nan nan nan nan nan nan nan nan nan nan nan nan nan nan nan nan nan
37 38 39 41 42 38 34 34 37 38 36 36 39 41 39 37 36 37 37 35 33 29 29 30 33 35 35 35 36 36 nan nan nan nan nan 29 31 33 33 nan nan nan nan nan nan nan nan nan nan nan nan nan nan nan nan nan nan nan nan nan nan nan nan nan nan nan nan nan nan nan nan nan nan nan nan nan nan nan nan nan nan nan nan nan nan
38 39 39 39 40 40 39 38 39 43 43 41 40 42 39 37 37 37 35 35 33 32 29 29 31 33 35 35 35 33 nan nan 25 27 29 32 35 36 35 35 35 nan nan nan nan nan nan nan nan nan nan nan nan nan nan nan nan nan nan nan nan nan nan nan nan nan nan nan nan nan nan nan nan nan nan nan nan nan nan nan nan nan nan nan nan
36 38 38 38 38 39 40 39 39 42 45 47 48 51 55 52 42 37 37 38 35 29 31 31 32 33 32 30 30 32 nan 26 33 34 34 35 35 38 38 40 nan nan nan nan nan nan nan nan nan nan nan nan nan nan nan nan nan nan nan nan nan nan nan nan nan nan nan nan nan nan nan nan nan nan nan nan nan nan nan nan nan nan nan nan nan
34 34 36 36 36 36 36 39 40 42 43 46 47 48 49 53 56 51 48 43 39 37 34 35 34 33 32 31 29 34 38 40 37 34 36 37 38 38 38 nan nan nan nan nan nan nan nan nan nan nan nan nan nan nan nan nan nan nan nan nan nan nan nan nan nan nan nan nan nan nan nan nan nan nan nan nan nan nan nan nan nan nan nan nan nan
32 33 33 33 36 37 37 39 43 45 45 46 47 47 49 50 50 52 49 45 41 39 38 39 37 34 31 33 35 34 35 35 36 36 36 nan nan nan nan nan nan nan nan nan nan nan nan nan nan nan nan nan nan nan nan nan nan nan nan nan nan nan nan nan nan nan nan nan nan nan nan nan nan nan nan nan nan nan nan nan nan nan nan nan nan
33 36 37 38 37 39 42 43 43 45 48 49 47 46 47 46 46 47 49 48 43 40 39 38 35 32 33 34 35 35 34 35 36 nan nan nan nan nan nan nan nan nan nan nan nan nan nan nan nan nan nan nan nan nan nan nan nan nan nan nan nan nan nan nan nan nan nan nan nan nan nan nan nan nan nan nan nan nan nan nan nan nan nan nan nan
35 38 41 39 40 42 45 46 45 45 47 49 47 45 44 43 43 46 45 39 41 44 43 37 31 30 31 33 36 38 40 39 nan nan nan nan nan nan nan nan nan nan nan nan nan nan nan nan nan nan nan nan nan nan nan nan nan nan nan nan nan nan nan nan nan nan nan nan nan nan nan nan nan nan nan nan nan nan nan nan nan nan nan nan nan
36 37 42 42 42 45 46 46 46 46 46 48 48 46 44 44 43 42 39 35 35 36 33 32 31 30 32 34 38 41 nan nan nan nan nan nan nan nan nan nan nan nan nan nan nan nan nan nan nan nan nan nan nan nan nan nan nan nan nan nan nan nan nan nan nan nan nan nan nan nan nan nan nan nan nan nan nan nan nan nan nan nan nan nan nan
37 38 39 42 45 45 46 46 45 45 45 48 49 48 47 44 42 41 41 39 39 37 36 35 34 34 37 38 42 42 41 nan nan nan nan nan nan nan nan nan nan nan nan nan nan nan nan nan nan nan nan nan nan nan nan nan nan nan nan nan nan nan nan nan nan nan nan nan nan nan nan nan nan nan nan nan nan nan nan nan nan nan nan nan nan
40 41 43 44 44 44 44 44 42 44 47 47 46 45 45 43 42 42 41 40 38 37 37 37 37 37 38 38 41 42 42 nan 44 47 nan nan nan nan nan nan nan nan nan nan nan nan nan nan nan nan nan nan nan nan nan nan nan nan nan nan nan nan nan nan nan nan nan nan nan nan nan nan nan nan nan nan nan nan nan nan nan nan nan nan nan
42 43 43 nan 42 41 40 39 40 44 44 43 41 41 40 38 38 40 40 38 37 37 36 36 36 37 38 38 38 38 41 45 48 46 nan nan nan nan nan nan nan nan nan nan nan nan nan nan nan nan nan nan nan nan nan nan nan nan nan nan nan nan nan nan nan nan nan nan nan nan nan nan nan nan nan nan nan nan nan nan nan nan nan nan nan
37 41 43 41 39 37 37 39 39 39 39 39 39 40 41 41 40 40 39 37 36 36 36 37 37 37 38 38 38 40 44 40 nan nan nan nan nan nan nan nan nan nan nan nan nan nan nan nan nan nan nan nan nan nan nan nan nan nan nan nan nan nan nan nan nan nan nan nan nan nan nan nan nan nan nan nan nan nan nan nan nan nan nan nan nan
36 36 38 42 39 39 38 39 39 36 36 37 37 39 42 42 40 37 36 36 36 37 36 37 37 37 37 37 nan nan nan nan nan nan nan nan nan nan nan nan nan nan nan nan nan nan nan nan nan nan nan nan nan nan nan nan nan nan nan nan nan nan nan nan nan nan nan nan nan nan nan nan nan nan nan nan nan nan nan nan nan nan nan nan nan
32 35 36 36 36 36 36 37 35 nan nan nan 36 35 37 39 39 38 38 38 38 nan nan nan nan nan nan nan nan 39 39 39 nan nan nan nan nan nan nan nan nan nan nan nan nan nan nan nan nan nan nan nan nan nan nan nan nan nan nan nan nan nan nan nan nan nan nan nan nan nan nan nan nan nan nan nan nan nan nan nan nan nan nan nan nan
32 33 33 30 30 30 30 nan nan 34 37 37 36 35 37 nan nan 38 39 39 39 39 39 38 38 37 38 41 nan nan nan nan nan nan nan nan nan nan nan nan nan nan nan nan nan nan nan nan nan nan nan nan nan nan nan nan nan nan nan nan nan nan nan nan nan nan nan nan nan nan nan nan nan nan nan nan nan nan nan nan nan nan nan nan nan
29 28 26 26 26 27 nan nan nan 32 33 33 35 36 nan 37 38 38 39 39 39 38 38 37 37 37 37 37 nan nan nan nan nan nan nan nan nan nan nan nan nan nan nan nan nan nan nan nan nan nan nan nan nan nan nan nan nan nan nan nan nan nan nan nan nan nan nan nan nan nan nan nan nan nan nan nan nan nan nan nan nan nan nan nan nan
24 23 24 26 27 27 28 29 31 32 32 35 36 37 37 38 38 38 38 37 37 36 36 36 37 38 nan nan nan nan nan nan nan nan nan nan nan nan nan nan nan nan nan nan nan nan nan nan nan nan nan nan nan nan nan nan nan nan nan nan nan nan nan nan nan nan nan nan nan nan nan nan nan nan nan nan nan nan nan nan nan nan nan nan nan
nan 22 23 25 26 26 27 29 29 31 32 33 34 35 36 37 37 37 36 36 36 36 nan nan nan nan nan nan nan nan nan nan nan nan nan nan nan nan nan nan nan nan nan nan nan nan nan nan nan nan nan nan nan nan nan nan nan nan nan nan nan nan nan nan nan nan nan nan nan nan nan nan nan nan nan nan nan nan nan nan nan nan nan nan nan
26 25 25 25 26 27 27 28 28 29 30 31 nan 33 34 35 36 nan nan nan nan nan nan nan nan nan nan nan nan nan nan nan nan nan nan nan nan nan nan nan nan nan nan nan nan nan nan nan nan nan nan nan nan nan nan nan nan nan nan nan nan nan nan nan nan nan nan nan nan nan nan nan nan nan nan nan nan nan nan nan nan nan nan nan nan
27 26 25 25 26 26 27 27 nan nan nan nan nan nan nan nan nan nan nan nan nan nan nan nan nan nan nan nan nan nan nan nan nan nan nan nan nan nan nan nan nan nan nan nan nan nan nan nan nan nan nan nan nan nan nan nan nan nan nan nan nan nan nan nan nan nan nan nan nan nan nan nan nan nan nan nan nan nan nan nan nan nan nan nan nan
nan nan nan nan nan nan nan nan nan nan nan nan nan nan nan nan nan nan nan nan nan nan nan nan nan nan nan nan nan nan nan nan nan nan nan nan nan nan nan nan nan nan nan nan nan nan nan nan nan nan nan nan nan nan nan nan nan nan nan nan nan nan nan nan nan nan nan nan nan nan nan nan nan nan nan nan nan nan nan nan nan nan nan nan nan
27 nan nan nan nan nan nan nan nan nan nan nan nan nan nan nan nan nan nan nan nan nan nan nan nan nan nan nan nan nan nan nan nan nan nan nan nan nan nan nan nan nan nan nan nan nan nan nan nan nan nan nan nan nan nan nan nan nan nan nan nan nan nan nan nan nan nan nan nan nan nan nan nan nan nan nan nan nan nan nan nan nan nan nan nan
nan nan nan nan nan nan nan nan nan nan nan nan nan nan nan nan nan nan nan nan nan nan nan nan nan nan nan nan nan nan nan nan nan nan nan nan nan nan nan nan nan nan nan nan nan nan nan nan nan nan nan nan nan nan nan nan nan nan nan nan nan nan nan nan nan nan nan nan nan nan nan nan nan nan nan nan nan nan nan nan nan nan nan nan nan
nan nan nan nan nan nan nan nan nan nan nan nan nan nan nan nan nan nan nan nan nan nan nan nan nan nan nan nan nan nan nan nan nan nan nan nan nan nan nan nan nan nan nan nan nan nan nan nan nan nan nan nan nan nan nan nan nan nan nan nan nan nan nan nan nan nan nan nan nan nan nan nan nan nan nan nan nan nan nan nan nan nan nan nan nan
Wind_Direction
250 254 260 269 273 271 268 271 274 273 275 277 281 283 282 276 277 272 266 268 273 278 282 286 289 288 288 288 291 290 292 292 292 291 nan nan nan nan nan nan nan nan nan nan nan nan nan nan nan nan nan nan nan nan nan nan nan nan nan nan nan nan nan nan nan nan nan nan nan nan nan nan nan nan nan nan nan nan nan nan nan nan nan nan nan
249 255 262 267 272 265 268 269 272 271 271 274 278 280 274 274 273 269 268 268 274 279 284 282 285 288 288 290 290 292 294 294 293 293 nan nan nan nan nan nan nan nan nan nan nan nan nan nan nan nan nan nan nan nan nan nan nan nan nan nan nan nan nan nan nan nan nan nan nan nan nan nan nan nan nan nan nan nan nan nan nan nan nan nan nan
252 256 262 265 264 261 264 267 269 270 271 272 277 272 270 273 273 270 265 264 270 275 281 284 287 289 287 288 290 292 294 294 293 295 nan nan nan nan nan nan nan nan nan nan nan nan nan nan nan nan nan nan nan nan nan nan nan nan nan nan nan nan nan nan nan nan nan nan nan nan nan nan nan nan nan nan nan nan nan nan nan nan nan nan nan
250 256 258 258 257 258 263 265 268 269 270 270 276 274 268 271 270 267 265 264 271 272 276 284 285 286 287 287 290 291 294 293 294 nan nan nan nan nan nan nan nan nan nan nan nan nan nan nan nan nan nan nan nan nan nan nan nan nan nan nan nan nan nan nan nan nan nan nan nan nan nan nan nan nan nan nan nan nan nan nan nan nan nan nan nan
251 256 256 256 255 257 262 265 267 267 270 270 275 275 269 269 266 266 262 264 270 272 274 278 281 285 285 289 291 292 294 295 296 nan nan nan nan nan nan nan nan nan nan nan nan nan nan nan nan nan nan nan nan nan nan nan nan nan nan nan nan nan nan nan nan nan nan nan nan nan nan nan nan nan nan nan nan nan nan nan nan nan nan nan nan
250 251 251 253 256 260 262 262 267 270 270 270 274 273 268 266 266 262 264 268 270 275 280 280 284 287 287 289 290 292 293 295 nan nan nan nan nan nan nan nan nan nan nan nan nan nan nan nan nan nan nan nan nan nan nan nan nan nan nan nan nan nan nan nan nan nan nan nan nan nan nan nan nan nan nan nan nan nan nan nan nan nan nan nan nan
246 246 247 254 256 260 262 264 266 267 269 268 268 268 267 264 266 263 262 267 273 276 278 282 280 285 288 288 290 292 293 294 295 nan nan nan nan nan nan nan nan nan nan nan nan nan nan nan nan nan nan nan nan nan nan nan nan nan nan nan nan nan nan nan nan nan nan nan nan nan nan nan nan nan nan nan nan nan nan nan nan nan nan nan nan
241 241 245 251 255 260 261 261 263 265 264 266 265 266 264 262 264 262 262 267 272 277 281 284 281 282 284 287 289 290 291 293 nan nan nan nan nan nan nan nan nan nan nan nan nan nan nan nan nan nan nan nan nan nan nan nan nan nan nan nan nan nan nan nan nan nan nan nan nan nan nan nan nan nan nan nan nan nan nan nan nan nan nan nan nan
241 243 245 252 255 256 256 256 258 262 264 264 264 264 264 261 263 261 261 263 263 273 277 281 282 284 282 285 288 288 291 293 nan nan nan nan nan nan nan nan nan nan nan nan nan nan nan nan nan nan nan nan nan nan nan nan nan nan nan nan nan nan nan nan nan nan nan nan nan nan nan nan nan nan nan nan nan nan nan nan nan nan nan nan nan
234 235 241 248 248 251 255 254 258 255 257 263 263 263 260 260 261 262 262 263 263 267 273 277 281 284 285 286 287 287 289 nan nan nan nan nan nan nan nan nan nan nan nan nan nan nan nan nan nan nan nan nan nan nan nan nan nan nan nan nan nan nan nan nan nan nan nan nan nan nan nan nan nan nan nan nan nan nan nan nan nan nan nan nan nan
238 239 239 243 244 247 251 252 252 253 263 261 260 257 256 256 259 260 261 261 263 264 265 274 277 280 285 287 289 289 291 nan nan nan nan nan nan nan nan nan nan nan nan nan nan nan nan nan nan nan nan nan nan nan nan nan nan nan nan nan nan nan nan nan nan nan nan nan nan nan nan nan nan nan nan nan nan nan nan nan nan nan nan nan nan
240 237 240 242 246 248 248 251 254 260 260 261 260 257 253 257 259 261 260 261 260 263 266 274 276 279 280 286 289 290 nan nan nan nan nan nan nan nan nan nan nan nan nan nan nan nan nan nan nan nan nan nan nan nan nan nan nan nan nan nan nan nan nan nan nan nan nan nan nan nan nan nan nan nan nan nan nan nan nan nan nan nan nan nan nan
241 239 238 242 241 244 249 252 254 255 258 256 254 252 259 263 265 269 265 260 259 266 274 274 276 277 282 288 290 291 nan nan nan nan nan nan nan nan nan nan nan nan nan nan nan nan nan nan nan nan nan nan nan nan nan nan nan nan nan nan nan nan nan nan nan nan nan nan nan nan nan nan nan nan nan nan nan nan nan nan nan nan nan nan nan
241 238 240 239 242 244 248 251 252 255 255 258 253 251 257 263 265 264 259 257 259 266 272 277 274 278 284 288 290 292 nan nan nan nan nan nan nan nan nan nan nan nan nan nan nan nan nan nan nan nan nan nan nan nan nan nan nan nan nan nan nan nan nan nan nan nan nan nan nan nan nan nan nan nan nan nan nan nan nan nan nan nan nan nan nan
240 240 240 238 242 243 246 250 252 254 250 251 251 257 256 261 264 260 255 259 262 265 271 275 274 277 282 284 286 289 nan nan nan nan nan nan nan nan nan nan nan nan nan nan nan nan nan nan nan nan nan nan nan nan nan nan nan nan nan nan nan nan nan nan nan nan nan nan nan nan nan nan nan nan nan nan nan nan nan nan nan nan nan nan nan
237 236 237 238 241 243 244 247 249 247 246 252 250 256 256 258 259 257 256 255 255 259 265 269 274 277 280 283 283 288 nan nan nan nan nan nan nan nan nan nan nan nan nan nan nan nan nan nan nan nan nan nan nan nan nan nan nan nan nan nan nan nan nan nan nan nan nan nan nan nan nan nan nan nan nan nan nan nan nan nan nan nan nan nan nan
233 235 236 237 237 241 244 245 245 244 249 253 252 256 255 254 255 256 256 254 255 259 263 266 270 276 282 285 288 nan nan nan nan nan nan nan nan nan nan nan nan nan nan nan nan nan nan nan nan nan nan nan nan nan nan nan nan nan nan nan nan nan nan nan nan nan nan nan nan nan nan nan nan nan nan nan nan nan nan nan nan nan nan nan nan
231 234 235 236 237 237 237 239 244 248 252 252 252 254 254 252 256 253 254 253 255 258 260 263 268 275 284 288 290 nan nan nan nan nan nan nan nan nan nan 303 nan nan nan nan nan nan nan nan nan nan nan nan nan nan nan nan nan nan nan nan nan nan nan nan nan nan nan nan nan nan nan nan nan nan nan nan nan nan nan nan nan nan nan nan nan
233 237 237 238 236 237 239 241 241 246 253 246 250 253 253 251 252 253 251 253 255 257 259 261 265 272 280 284 293 nan nan nan nan nan nan nan nan nan 302 302 303 nan nan nan nan nan nan nan nan nan nan nan nan nan nan nan nan nan nan nan nan nan nan nan nan nan nan nan nan nan nan nan nan nan nan nan nan nan nan nan nan nan nan nan nan
237 236 236 237 238 238 238 241 243 245 245 245 241 248 246 245 250 254 252 251 252 256 259 260 270 275 278 278 281 nan nan nan nan nan nan nan nan nan nan nan nan nan nan nan nan nan nan nan nan nan nan nan nan nan nan nan nan nan nan nan nan nan nan nan nan nan nan nan nan nan nan nan nan nan nan nan nan nan nan nan nan nan nan nan nan
237 238 239 240 239 239 239 241 245 243 242 244 241 241 244 247 249 252 252 250 253 255 260 261 267 273 275 277 279 281 nan nan nan nan nan nan nan nan nan nan nan nan nan nan nan nan nan nan nan nan nan nan nan nan nan nan nan nan nan nan nan nan nan nan nan nan nan nan nan nan nan nan nan nan nan nan nan nan nan nan nan nan nan nan nan
236 239 242 243 241 240 240 241 243 241 241 240 241 239 242 246 249 253 253 254 256 258 259 262 266 268 269 270 274 276 278 nan nan nan nan nan nan nan nan nan 304 302 nan nan nan nan nan nan nan nan nan nan nan nan nan nan nan nan nan nan nan nan nan nan nan nan nan nan nan nan nan nan nan nan nan nan nan nan nan nan nan nan nan nan nan
236 240 241 242 244 243 242 244 241 239 241 240 241 244 244 244 247 253 259 258 255 257 259 261 265 269 269 264 262 266 270 nan nan nan nan nan nan nan nan nan nan nan nan nan nan nan nan nan nan nan nan nan nan nan nan nan nan nan nan nan nan nan nan nan nan nan nan nan nan nan nan nan nan nan nan nan nan nan nan nan nan nan nan nan nan
240 240 241 243 242 242 243 244 244 241 241 240 240 242 244 242 249 252 255 257 254 256 253 262 265 268 270 265 264 267 272 275 nan nan nan nan nan nan nan 306 nan nan nan nan nan nan nan nan nan nan nan nan nan nan nan nan nan nan nan nan nan nan nan nan nan nan nan nan nan nan nan nan nan nan nan nan nan nan nan nan nan nan nan nan nan
238 239 237 234 240 244 243 242 243 239 239 240 240 238 243 246 249 251 256 257 252 255 260 269 273 269 264 266 273 279 283 285 283 nan nan nan nan nan nan nan nan 305 nan nan nan nan nan nan nan nan nan nan nan nan nan nan nan nan nan nan nan nan nan nan nan nan nan nan nan nan nan nan nan nan nan nan nan nan nan nan nan nan nan nan nan
252 254 251 247 240 232 232 233 235 236 240 236 235 239 243 245 248 251 253 256 256 257 265 267 270 267 268 272 277 281 284 284 283 281 282 290 298 310 310 305 nan nan nan nan nan nan nan nan nan nan nan nan nan nan nan nan nan nan nan nan nan nan nan nan nan nan nan nan nan nan nan nan nan nan nan nan nan nan nan nan nan nan nan nan nan
248 251 250 245 243 240 239 236 235 237 240 238 238 241 245 248 249 250 250 252 253 255 254 260 264 267 272 271 274 276 279 283 285 281 277 280 289 294 296 nan nan nan nan nan nan nan nan nan nan nan nan nan nan nan nan nan nan nan nan nan nan nan nan nan nan nan nan nan nan nan nan nan nan nan nan nan nan nan nan nan nan nan nan nan nan
250 252 255 253 252 250 245 249 247 241 244 245 242 244 251 253 255 256 256 257 257 255 255 260 266 270 269 270 272 276 nan nan nan nan nan 283 287 291 293 nan nan nan nan nan nan nan nan nan nan nan nan nan nan nan nan nan nan nan nan nan nan nan nan nan nan nan nan nan nan nan nan nan nan nan nan nan nan nan nan nan nan nan nan nan nan
259 262 260 256 257 255 248 246 244 244 245 245 245 245 254 256 255 254 258 262 263 259 260 265 271 274 275 275 277 281 nan nan 297 301 298 296 293 293 298 305 307 nan nan nan nan nan nan nan nan nan nan nan nan nan nan nan nan nan nan nan nan nan nan nan nan nan nan nan nan nan nan nan nan nan nan nan nan nan nan nan nan nan nan nan nan
267 268 266 266 265 261 255 253 253 252 250 248 246 237 230 234 241 254 256 255 252 256 265 267 275 275 274 272 278 284 nan 292 287 291 290 294 298 307 313 316 nan nan nan nan nan nan nan nan nan nan nan nan nan nan nan nan nan nan nan nan nan nan nan nan nan nan nan nan nan nan nan nan nan nan nan nan nan nan nan nan nan nan nan nan nan
257 263 265 266 270 270 265 260 257 257 257 256 253 250 244 238 235 241 247 247 253 260 258 256 272 278 276 272 269 259 267 280 296 297 299 305 310 314 313 nan nan nan nan nan nan nan nan nan nan nan nan nan nan nan nan nan nan nan nan nan nan nan nan nan nan nan nan nan nan nan nan nan nan nan nan nan nan nan nan nan nan nan nan nan nan
254 255 255 252 267 270 270 266 260 257 258 260 259 255 252 248 238 231 240 252 250 253 259 266 272 272 270 270 273 270 279 289 292 298 302 nan nan nan nan nan nan nan nan nan nan nan nan nan nan nan nan nan nan nan nan nan nan nan nan nan nan nan nan nan nan nan nan nan nan nan nan nan nan nan nan nan nan nan nan nan nan nan nan nan nan
256 252 253 256 257 259 263 265 261 258 257 257 256 254 252 249 247 243 234 234 242 249 258 265 269 272 273 278 284 285 286 289 294 nan nan nan nan nan nan nan nan nan nan nan nan nan nan nan nan nan nan nan nan nan nan nan nan nan nan nan nan nan nan nan nan nan nan nan nan nan nan nan nan nan nan nan nan nan nan nan nan nan nan nan nan
262 258 255 259 262 260 260 261 262 260 258 257 254 251 248 244 245 248 248 242 237 237 240 250 264 269 271 277 276 275 280 286 nan nan nan nan nan nan nan nan nan nan nan nan nan nan nan nan nan nan nan nan nan nan nan nan nan nan nan nan nan nan nan nan nan nan nan nan nan nan nan nan nan nan nan nan nan nan nan nan nan nan nan nan nan
257 261 271 269 265 265 263 262 262 263 262 258 254 250 244 239 242 246 249 247 246 250 254 247 246 255 261 265 270 275 nan nan nan nan nan nan nan nan nan nan nan nan nan nan nan nan nan nan nan nan nan nan nan nan nan nan nan nan nan nan nan nan nan nan nan nan nan nan nan nan nan nan nan nan nan nan nan nan nan nan nan nan nan nan nan
251 253 256 262 261 261 262 263 263 261 257 251 246 242 238 237 237 236 236 239 243 247 249 247 248 244 259 265 272 274 278 nan nan nan nan nan nan nan nan nan nan nan nan nan nan nan nan nan nan nan nan nan nan nan nan nan nan nan nan nan nan nan nan nan nan nan nan nan nan nan nan nan nan nan nan nan nan nan nan nan nan nan nan nan nan
250 254 252 251 254 255 256 257 255 252 246 242 239 234 230 228 230 232 233 237 242 245 251 253 251 251 250 252 262 268 274 nan 282 287 nan nan nan nan nan nan nan nan nan nan nan nan nan nan nan nan nan nan nan nan nan nan nan nan nan nan nan nan nan nan nan nan nan nan nan nan nan nan nan nan nan nan nan nan nan nan nan nan nan nan nan
254 254 253 nan 252 255 255 250 247 247 243 237 231 230 231 231 231 232 234 237 242 246 250 252 256 260 263 260 265 267 269 272 274 276 nan nan nan nan nan nan nan nan nan nan nan nan nan nan nan nan nan nan nan nan nan nan nan nan nan nan nan nan nan nan nan nan nan nan nan nan nan nan nan nan nan nan nan nan nan nan nan nan nan nan nan
246 256 256 253 252 254 253 250 247 242 236 231 226 226 228 230 230 230 231 236 239 242 248 252 259 264 263 266 267 271 275 279 nan nan nan nan nan nan nan nan nan nan nan nan nan nan nan nan nan nan nan nan nan nan nan nan nan nan nan nan nan nan nan nan nan nan nan nan nan nan nan nan nan nan nan nan nan nan nan nan nan nan nan nan nan
250 247 248 254 249 249 248 247 246 237 228 227 225 224 227 228 230 232 235 238 242 247 251 255 259 262 265 269 nan nan nan nan nan nan nan nan nan nan nan nan nan nan nan nan nan nan nan nan nan nan nan nan nan nan nan nan nan nan nan nan nan nan nan nan nan nan nan nan nan nan nan nan nan nan nan nan nan nan nan nan nan nan nan nan nan
240 245 243 245 247 245 242 243 239 nan nan nan 226 226 228 230 230 234 236 241 246 nan nan nan nan nan nan nan nan 284 281 284 nan nan nan nan nan nan nan nan nan nan nan nan nan nan nan nan nan nan nan nan nan nan nan nan nan nan nan nan nan nan nan nan nan nan nan nan nan nan nan nan nan nan nan nan nan nan nan nan nan nan nan nan nan
238 238 238 238 239 236 234 nan nan 229 226 224 229 228 228 nan nan 233 238 243 245 248 252 255 258 263 269 279 nan nan nan nan nan nan nan nan nan nan nan nan nan nan nan nan nan nan nan nan nan nan nan nan nan nan nan nan nan nan nan nan nan nan nan nan nan nan nan nan nan nan nan nan nan nan nan nan nan nan nan nan nan nan nan nan nan
228 228 229 229 229 229 nan nan nan 227 225 226 227 227 nan 230 232 237 242 245 248 252 256 259 262 266 272 279 nan nan nan nan nan nan nan nan nan nan nan nan nan nan nan nan nan nan nan nan nan nan nan nan nan nan nan nan nan nan nan nan nan nan nan nan nan nan nan nan nan nan nan nan nan nan nan nan nan nan nan nan nan nan nan nan nan
215 214 214 217 219 223 223 223 224 225 226 229 231 232 234 237 241 244 247 250 254 257 260 264 267 270 nan nan nan nan nan nan nan nan nan nan nan nan nan nan nan nan nan nan nan nan nan nan nan nan nan nan nan nan nan nan nan nan nan nan nan nan nan nan nan nan nan nan nan nan nan nan nan nan nan nan nan nan nan nan nan nan nan nan nan
nan 211 213 215 216 216 217 219 227 230 236 236 236 237 240 242 244 247 250 253 255 257 nan nan nan nan nan nan nan nan nan nan nan nan nan nan nan nan nan nan nan nan nan nan nan nan nan nan nan nan nan nan nan nan nan nan nan nan nan nan nan nan nan nan nan nan nan nan nan nan nan nan nan nan nan nan nan nan nan nan nan nan nan nan nan
210 211 214 216 219 219 224 228 233 236 239 239 nan 243 243 244 246 nan nan nan nan nan nan nan nan nan nan nan nan nan nan nan nan nan nan nan nan nan nan nan nan nan nan nan nan nan nan nan nan nan nan nan nan nan nan nan nan nan nan nan nan nan nan nan nan nan nan nan nan nan nan nan nan nan nan nan nan nan nan nan nan nan nan nan nan
216 219 224 225 226 226 227 230 nan nan nan nan nan nan nan nan nan nan nan nan nan nan nan nan nan nan nan nan nan nan nan nan nan nan nan nan nan nan nan nan nan nan nan nan nan nan nan nan nan nan nan nan nan nan nan nan nan nan nan nan nan nan nan nan nan nan nan nan nan nan nan nan nan nan nan nan nan nan nan nan nan nan nan nan nan
nan nan nan nan nan nan nan nan nan nan nan nan nan nan nan nan nan nan nan nan nan nan nan nan nan nan nan nan nan nan nan nan nan nan nan nan nan nan nan nan nan nan nan nan nan nan nan nan nan nan nan nan nan nan nan nan nan nan nan nan nan nan nan nan nan nan nan nan nan nan nan nan nan nan nan nan nan nan nan nan nan nan nan nan nan
241 nan nan nan nan nan nan nan nan nan nan nan nan nan nan nan nan nan nan nan nan nan nan nan nan nan nan nan nan nan nan nan nan nan nan nan nan nan nan nan nan nan nan nan nan nan nan nan nan nan nan nan nan nan nan nan nan nan nan nan nan nan nan nan nan nan nan nan nan nan nan nan nan nan nan nan nan nan nan nan nan nan nan nan nan
nan nan nan nan nan nan nan nan nan nan nan nan nan nan nan nan nan nan nan nan nan nan nan nan nan nan nan nan nan nan nan nan nan nan nan nan nan nan nan nan nan nan nan nan nan nan nan nan nan nan nan nan nan nan nan nan nan nan nan nan nan nan nan nan nan nan nan nan nan nan nan nan nan nan nan nan nan nan nan nan nan nan nan nan nan
nan nan nan nan nan nan nan nan nan nan nan nan nan nan nan nan nan nan nan nan nan nan nan nan nan nan nan nan nan nan nan nan nan nan nan nan nan nan nan nan nan nan nan nan nan nan nan nan nan nan nan nan nan nan nan nan nan nan nan nan nan nan nan nan nan nan nan nan nan nan nan nan nan nan nan nan nan nan nan nan nan nan nan nan nan